METEOR-M2 2

Last updated on Mon Jun 22 2026 00:02:46 GMT+0000 (Coordinated Universal Time)

1 44387U 19038A 26172.52968670 .00000005 00000+0 22237-4 0 9992 2 44387 98.9151 159.8796 0001904 41.8346 318.2978 14.24366528361915
UTC large
Height (km)
Speed (km/s)
/
Latitude / Longitude
Inclination (degrees)
Orbital Period (minutes)
Azimuth
Elevation
Range (km)
Doppler Factor

Next 0 passes for location: London (51.5072 / 0.1276)

No passes found over London.
METEOR-M2 2